| time (UTC) | temp F | wind direction | speed MPH | gust MPH | rain 1hr in | rain 24hr in | rain mn in | humidity % | barometer mb |
| 20260903230800 | 85 | 161 | 0.0 | 2.0 | 0.00 | 0.08 | 0.08 | 75 | 1011.2 |
| 20260903230300 | 84 | 156 | 1.0 | 3.0 | 0.00 | 0.08 | 0.08 | 75 | 1011.1 |
| 20260903225755 | 84 | 164 | 0.0 | 2.0 | 0.00 | 0.08 | 0.08 | 75 | 1011.0 |
| 20260903225252 | 84 | 173 | 1.0 | 3.0 | 0.00 | 0.08 | 0.08 | 74 | 1011.4 |
| 20260903224748 | 84 | 159 | 0.0 | 2.0 | 0.00 | 0.08 | 0.08 | 74 | 1011.3 |
| 20260903224244 | 84 | 78 | 2.0 | 3.0 | 0.00 | 0.08 | 0.08 | 74 | 1011.3 |
| 20260903223739 | 84 | 148 | 0.0 | 1.0 | 0.00 | 0.08 | 0.08 | 74 | 1011.4 |
| 20260903223237 | 84 | 165 | 0.0 | 2.0 | 0.00 | 0.08 | 0.08 | 75 | 1011.1 |
| 20260903222733 | 83 | 153 | 2.0 | 2.0 | 0.00 | 0.08 | 0.08 | 75 | 1011.0 |
| 20260903222232 | 83 | 175 | 0.0 | 2.0 | 0.00 | 0.08 | 0.08 | 76 | 1011.1 |
| 20260903221727 | 83 | 146 | 2.0 | 4.0 | 0.00 | 0.08 | 0.08 | 76 | 1011.4 |
| 20260903221225 | 83 | 223 | 0.0 | 4.0 | 0.00 | 0.08 | 0.08 | 77 | 1011.5 |
| 20260903220724 | 83 | 99 | 4.0 | 4.0 | 0.00 | 0.08 | 0.08 | 78 | 1011.3 |
| 20260903220219 | 83 | 148 | 2.0 | 3.0 | 0.00 | 0.08 | 0.08 | 79 | 1011.3 |
| 20260903215718 | 83 | 99 | 2.0 | 3.0 | 0.00 | 0.08 | 0.08 | 80 | 1011.3 |
| 20260903215213 | 82 | 121 | 2.0 | 3.0 | 0.00 | 0.08 | 0.08 | 81 | 1011.4 |
| 20260903214711 | 82 | 86 | 2.0 | 4.0 | 0.00 | 0.08 | 0.08 | 84 | 1011.9 |
| 20260903214208 | 81 | 343 | 2.0 | 3.0 | 0.00 | 0.08 | 0.08 | 84 | 1011.8 |
| 20260903213702 | 81 | 117 | 2.0 | 2.0 | 0.00 | 0.08 | 0.08 | 84 | 1012.3 |
| 20260903213158 | 81 | 190 | 1.0 | 4.0 | 0.00 | 0.08 | 0.08 | 84 | 1012.4 |
| 20260903212654 | 81 | 283 | 3.0 | 3.0 | 0.00 | 0.08 | 0.08 | 84 | 1012.5 |
| 20260903212150 | 81 | 288 | 2.0 | 3.0 | 0.00 | 0.08 | 0.08 | 84 | 1012.3 |
| 20260903211643 | 81 | 53 | 3.0 | 6.0 | 0.00 | 0.08 | 0.08 | 83 | 1012.5 |
| 20260903211140 | 81 | 55 | 2.0 | 3.0 | 0.00 | 0.08 | 0.08 | 83 | 1012.6 |
| 20260903210635 | 81 | 195 | 1.0 | 2.0 | 0.00 | 0.08 | 0.08 | 83 | 1012.7 |
| 20260903210131 | 81 | 131 | 1.0 | 3.0 | 0.00 | 0.08 | 0.08 | 82 | 1012.6 |
| 20260903205631 | 81 | 81 | 2.0 | 8.0 | 0.00 | 0.08 | 0.08 | 82 | 1012.4 |
| 20260903205130 | 82 | 8 | 5.0 | 7.0 | 0.00 | 0.08 | 0.08 | 83 | 1012.5 |
| 20260903204626 | 81 | 3 | 4.0 | 7.0 | 0.00 | 0.08 | 0.08 | 83 | 1012.4 |
| 20260903204122 | 81 | 44 | 2.0 | 6.0 | 0.00 | 0.08 | 0.08 | 84 | 1012.6 |
| 20260903203612 | 81 | 21 | 4.0 | 6.0 | 0.00 | 0.08 | 0.08 | 85 | 1012.6 |
| 20260903203111 | 81 | 10 | 6.0 | 7.0 | 0.00 | 0.08 | 0.08 | 85 | 1012.4 |
| 20260903202607 | 81 | 347 | 4.0 | 6.0 | 0.00 | 0.08 | 0.08 | 85 | 1012.1 |
| 20260903202102 | 81 | 124 | 4.0 | 7.0 | 0.00 | 0.08 | 0.08 | 86 | 1012.3 |
| 20260903201556 | 80 | 352 | 3.0 | 7.0 | 0.00 | 0.08 | 0.08 | 87 | 1012.2 |
| 20260903201056 | 80 | 293 | 6.0 | 10.0 | 0.00 | 0.08 | 0.08 | 87 | 1012.2 |
| 20260903200551 | 80 | 24 | 4.0 | 7.0 | 0.00 | 0.08 | 0.08 | 87 | 1012.5 |
| 20260903200046 | 80 | 341 | 6.0 | 6.0 | 0.00 | 0.08 | 0.08 | 87 | 1012.1 |
| 20260903195542 | 80 | 202 | 2.0 | 4.0 | 0.00 | 0.08 | 0.08 | 87 | 1012.2 |
| 20260903195037 | 80 | 342 | 5.0 | 6.0 | 0.00 | 0.08 | 0.08 | 87 | 1012.3 |
| 20260903194533 | 80 | 59 | 3.0 | 6.0 | 0.00 | 0.08 | 0.08 | 87 | 1012.4 |
| 20260903194028 | 80 | 158 | 1.0 | 4.0 | 0.00 | 0.08 | 0.08 | 87 | 1012.6 |
| 20260903193524 | 80 | 359 | 5.0 | 6.0 | 0.00 | 0.08 | 0.08 | 86 | 1012.5 |
| 20260903193019 | 80 | 282 | 3.0 | 4.0 | 0.00 | 0.08 | 0.08 | 86 | 1012.5 |
| 20260903192516 | 80 | 353 | 6.0 | 9.0 | 0.00 | 0.08 | 0.08 | 84 | 1012.7 |
| 20260903192016 | 80 | 338 | 5.0 | 7.0 | 0.00 | 0.08 | 0.08 | 84 | 1012.6 |
| 20260903191513 | 80 | 336 | 4.0 | 6.0 | 0.00 | 0.08 | 0.08 | 82 | 1012.3 |
| 20260903191013 | 80 | 123 | 2.0 | 2.0 | 0.00 | 0.08 | 0.08 | 81 | 1012.5 |
| 20260903190507 | 80 | 322 | 4.0 | 7.0 | 0.00 | 0.08 | 0.08 | 81 | 1012.2 |
| 20260903190007 | 80 | 358 | 8.0 | 13.0 | 0.00 | 0.08 | 0.08 | 80 | 1012.4 |
| 20260903185503 | 80 | 15 | 8.0 | 11.0 | 0.00 | 0.08 | 0.08 | 81 | 1012.5 |
| 20260903185002 | 80 | 337 | 6.0 | 8.0 | 0.00 | 0.08 | 0.08 | 84 | 1012.4 |
| 20260903184459 | 80 | 69 | 3.0 | 3.0 | 0.00 | 0.08 | 0.08 | 84 | 1012.6 |
| 20260903183953 | 80 | 89 | 3.0 | 6.0 | 0.00 | 0.08 | 0.08 | 83 | 1012.5 |
| 20260903183448 | 79 | 324 | 4.0 | 4.0 | 0.00 | 0.08 | 0.08 | 84 | 1012.6 |
| 20260903182948 | 79 | 217 | 3.0 | 4.0 | 0.05 | 0.08 | 0.08 | 84 | 1013.1 |
| 20260903182446 | 79 | 36 | 3.0 | 6.0 | 0.12 | 0.08 | 0.08 | 84 | 1012.9 |
| 20260903181942 | 78 | 171 | 2.0 | 2.0 | 0.24 | 0.07 | 0.07 | 83 | 1013.2 |
| 20260903181436 | 79 | 112 | 1.0 | 1.0 | 0.31 | 0.06 | 0.06 | 79 | 1013.1 |
| 20260903180936 | 80 | 202 | 3.0 | 3.0 | 0.12 | 0.02 | 0.02 | 76 | 1013.4 |
| 20260903180430 | 82 | 353 | 4.0 | 4.0 | 0.05 | 0.01 | 0.01 | 72 | 1012.9 |
| 20260903175930 | 82 | 166 | 1.0 | 3.0 | 0.00 | 0.00 | 0.00 | 67 | 1013.1 |
| 20260903175425 | 83 | 331 | 7.0 | 11.0 | 0.00 | 0.00 | 0.00 | 65 | 1013.1 |
| 20260903174918 | 82 | 320 | 9.0 | 18.0 | 0.00 | 0.00 | 0.00 | 68 | 1013.4 |
| 20260903174414 | 83 | 322 | 14.0 | 16.0 | 0.00 | 0.00 | 0.00 | 73 | 1013.8 |
| 20260903173914 | 84 | 315 | 6.0 | 9.0 | 0.00 | 0.00 | 0.00 | 73 | 1013.6 |
| 20260903173409 | 86 | 7 | 12.0 | 16.0 | 0.00 | 0.00 | 0.00 | 70 | 1013.7 |
| 20260903172905 | 88 | 326 | 5.0 | 6.0 | 0.00 | 0.00 | 0.00 | 69 | 1013.3 |
| 20260903172404 | 88 | 329 | 3.0 | 4.0 | 0.00 | 0.00 | 0.00 | 69 | 1012.9 |
| 20260903171900 | 87 | 330 | 6.0 | 8.0 | 0.00 | 0.00 | 0.00 | 70 | 1012.9 |
| 20260903171355 | 88 | 288 | 4.0 | 10.0 | 0.00 | 0.00 | 0.00 | 66 | 1012.9 |
| 20260903170855 | 93 | 207 | 5.0 | 9.0 | 0.00 | 0.00 | 0.00 | 63 | 1012.9 |
| 20260903170350 | 95 | 135 | 5.0 | 8.0 | 0.00 | 0.00 | 0.00 | 61 | 1013.1 |
| 20260903165849 | 94 | 124 | 3.0 | 6.0 | 0.00 | 0.00 | 0.00 | 62 | 1013.0 |
| 20260903165349 | 92 | 137 | 2.0 | 6.0 | 0.00 | 0.00 | 0.00 | 66 | 1013.1 |
| 20260903164843 | 92 | 200 | 4.0 | 6.0 | 0.00 | 0.00 | 0.00 | 67 | 1013.2 |
| 20260903164338 | 92 | 157 | 3.0 | 6.0 | 0.00 | 0.00 | 0.00 | 67 | 1013.2 |
| 20260903163837 | 92 | 120 | 3.0 | 4.0 | 0.00 | 0.00 | 0.00 | 67 | 1013.2 |
| 20260903163334 | 91 | 163 | 0.0 | 3.0 | 0.00 | 0.00 | 0.00 | 68 | 1013.2 |
| 20260903162830 | 93 | 145 | 6.0 | 7.0 | 0.00 | 0.00 | 0.00 | 66 | 1013.2 |
| 20260903162326 | 90 | 172 | 1.0 | 2.0 | 0.00 | 0.00 | 0.00 | 71 | 1013.3 |
| 20260903161822 | 92 | 157 | 4.0 | 8.0 | 0.00 | 0.00 | 0.00 | 68 | 1013.3 |
| 20260903161317 | 91 | 135 | 2.0 | 3.0 | 0.00 | 0.00 | 0.00 | 71 | 1013.4 |
| 20260903160813 | 88 | 199 | 2.0 | 3.0 | 0.00 | 0.00 | 0.00 | 75 | 1013.3 |
| 20260903160312 | 88 | 158 | 4.0 | 4.0 | 0.00 | 0.00 | 0.00 | 74 | 1013.2 |
| 20260903155810 | 88 | 159 | 2.0 | 4.0 | 0.00 | 0.00 | 0.00 | 74 | 1013.2 |
| 20260903155306 | 87 | 167 | 0.0 | 0.0 | 0.00 | 0.00 | 0.00 | 76 | 1013.3 |
| 20260903154801 | 87 | 145 | 2.0 | 2.0 | 0.00 | 0.00 | 0.00 | 76 | 1013.0 |
| 20260903154257 | 87 | 156 | 2.0 | 4.0 | 0.00 | 0.00 | 0.00 | 76 | 1013.2 |
| 20260903153753 | 87 | 178 | 1.0 | 3.0 | 0.00 | 0.00 | 0.00 | 77 | 1013.1 |
| 20260903153249 | 86 | 162 | 0.0 | 2.0 | 0.00 | 0.00 | 0.00 | 79 | 1013.1 |
| 20260903152745 | 86 | 163 | 2.0 | 3.0 | 0.00 | 0.00 | 0.00 | 79 | 1013.2 |
| 20260903152241 | 86 | 181 | 2.0 | 2.0 | 0.00 | 0.00 | 0.00 | 80 | 1013.0 |
| 20260903151740 | 85 | 198 | 1.0 | 2.0 | 0.00 | 0.00 | 0.00 | 81 | 1013.2 |
| 20260903151236 | 85 | 156 | 3.0 | 3.0 | 0.00 | 0.00 | 0.00 | 82 | 1013.2 |
| 20260903150731 | 84 | 156 | 0.0 | 1.0 | 0.00 | 0.00 | 0.00 | 83 | 1013.1 |
| 20260903150231 | 84 | 151 | 0.0 | 2.0 | 0.00 | 0.00 | 0.00 | 83 | 1013.1 |
| 20260903145731 | 84 | 160 | 2.0 | 3.0 | 0.00 | 0.00 | 0.00 | 84 | 1013.2 |
| 20260903145226 | 84 | 148 | 0.0 | 0.0 | 0.00 | 0.00 | 0.00 | 85 | 1013.2 |
| 20260903144725 | 84 | 148 | 0.0 | 0.0 | 0.00 | 0.00 | 0.00 | 85 | 1013.4 |
| 20260903144221 | 84 | 140 | 2.0 | 3.0 | 0.00 | 0.00 | 0.00 | 84 | 1013.5 |
| 20260903143716 | 84 | 106 | 2.0 | 3.0 | 0.00 | 0.00 | 0.00 | 85 | 1013.6 |
| 20260903143212 | 84 | 151 | 0.0 | 1.0 | 0.00 | 0.00 | 0.00 | 85 | 1013.5 |
| 20260903142708 | 84 | 138 | 1.0 | 2.0 | 0.00 | 0.00 | 0.00 | 85 | 1013.5 |
| 20260903142204 | 84 | 154 | 3.0 | 4.0 | 0.00 | 0.00 | 0.00 | 84 | 1013.5 |
| 20260903141659 | 84 | 155 | 2.0 | 2.0 | 0.00 | 0.00 | 0.00 | 84 | 1013.6 |
| 20260903141154 | 84 | 148 | 2.0 | 3.0 | 0.00 | 0.00 | 0.00 | 84 | 1013.5 |
| 20260903140650 | 84 | 108 | 2.0 | 3.0 | 0.00 | 0.00 | 0.00 | 84 | 1013.5 |
| 20260903140145 | 84 | 164 | 0.0 | 3.0 | 0.00 | 0.00 | 0.00 | 84 | 1013.4 |
| 20260903135641 | 84 | 151 | 2.0 | 3.0 | 0.00 | 0.00 | 0.00 | 83 | 1013.4 |
| 20260903135135 | 84 | 160 | 1.0 | 1.0 | 0.00 | 0.00 | 0.00 | 84 | 1013.6 |
| 20260903134634 | 84 | 152 | 2.0 | 2.0 | 0.00 | 0.00 | 0.00 | 84 | 1013.6 |
| 20260903134131 | 84 | 151 | 0.0 | 2.0 | 0.00 | 0.00 | 0.00 | 83 | 1013.6 |
| 20260903133628 | 84 | 161 | 1.0 | 2.0 | 0.00 | 0.00 | 0.00 | 84 | 1013.6 |
| 20260903133124 | 83 | 155 | 0.0 | 1.0 | 0.00 | 0.00 | 0.00 | 84 | 1013.6 |
| 20260903132624 | 83 | 174 | 2.0 | 3.0 | 0.00 | 0.00 | 0.00 | 84 | 1013.5 |
| 20260903132120 | 83 | 174 | 2.0 | 3.0 | 0.00 | 0.00 | 0.00 | 84 | 1013.5 |
| 20260903131619 | 83 | 188 | 1.0 | 1.0 | 0.00 | 0.00 | 0.00 | 83 | 1013.2 |
| 20260903131118 | 83 | 196 | 3.0 | 3.0 | 0.00 | 0.00 | 0.00 | 83 | 1013.3 |
| 20260903130616 | 83 | 213 | 3.0 | 4.0 | 0.00 | 0.00 | 0.00 | 83 | 1013.4 |
| 20260903130109 | 83 | 149 | 3.0 | 3.0 | 0.00 | 0.00 | 0.00 | 84 | 1013.2 |
| 20260903125607 | 83 | 163 | 3.0 | 6.0 | 0.00 | 0.00 | 0.00 | 84 | 1013.1 |
| 20260903125102 | 83 | 168 | 1.0 | 1.0 | 0.00 | 0.00 | 0.00 | 84 | 1013.1 |
| 20260903124603 | 83 | 166 | 1.0 | 4.0 | 0.00 | 0.00 | 0.00 | 84 | 1012.7 |
| 20260903124102 | 83 | 206 | 3.0 | 3.0 | 0.00 | 0.00 | 0.00 | 85 | 1012.7 |
| 20260903123601 | 83 | 206 | 3.0 | 4.0 | 0.00 | 0.00 | 0.00 | 85 | 1012.6 |
| 20260903123101 | 83 | 199 | 3.0 | 8.0 | 0.00 | 0.00 | 0.00 | 85 | 1012.7 |
| 20260903122600 | 83 | 189 | 5.0 | 7.0 | 0.00 | 0.00 | 0.00 | 85 | 1012.6 |
| 20260903122055 | 83 | 196 | 4.0 | 4.0 | 0.00 | 0.00 | 0.00 | 85 | 1012.6 |
| 20260903121554 | 83 | 195 | 3.0 | 4.0 | 0.00 | 0.00 | 0.00 | 86 | 1012.6 |
| 20260903121050 | 83 | 197 | 3.0 | 4.0 | 0.00 | 0.00 | 0.00 | 86 | 1012.4 |
| 20260903120549 | 83 | 210 | 1.0 | 2.0 | 0.00 | 0.00 | 0.00 | 86 | 1012.4 |
| 20260903120044 | 83 | 195 | 2.0 | 3.0 | 0.00 | 0.00 | 0.00 | 86 | 1012.5 |
| 20260903115542 | 83 | 177 | 2.0 | 2.0 | 0.00 | 0.00 | 0.00 | 86 | 1012.5 |
| 20260903115037 | 83 | 208 | 2.0 | 3.0 | 0.00 | 0.00 | 0.00 | 86 | 1012.4 |
| 20260903114532 | 83 | 206 | 4.0 | 4.0 | 0.00 | 0.00 | 0.00 | 86 | 1012.5 |
| 20260903114028 | 83 | 173 | 2.0 | 2.0 | 0.00 | 0.00 | 0.00 | 86 | 1012.4 |
| 20260903113523 | 83 | 173 | 2.0 | 2.0 | 0.00 | 0.00 | 0.00 | 86 | 1012.2 |
| 20260903113020 | 83 | 219 | 3.0 | 6.0 | 0.00 | 0.00 | 0.00 | 86 | 1012.4 |
| 20260903112515 | 83 | 187 | 3.0 | 3.0 | 0.00 | 0.00 | 0.00 | 86 | 1012.4 |
| 20260903112015 | 83 | 178 | 2.0 | 2.0 | 0.00 | 0.00 | 0.00 | 86 | 1012.5 |
| 20260903111514 | 83 | 179 | 2.0 | 3.0 | 0.00 | 0.00 | 0.00 | 86 | 1012.4 |
| 20260903111011 | 83 | 207 | 4.0 | 4.0 | 0.00 | 0.00 | 0.00 | 86 | 1012.4 |
| 20260903110506 | 83 | 195 | 4.0 | 4.0 | 0.00 | 0.00 | 0.00 | 85 | 1012.5 |
| 20260903110001 | 83 | 189 | 2.0 | 3.0 | 0.00 | 0.00 | 0.00 | 86 | 1012.6 |
| 20260903105456 | 83 | 170 | 2.0 | 3.0 | 0.00 | 0.00 | 0.00 | 85 | 1012.5 |
| 20260903104955 | 83 | 189 | 4.0 | 4.0 | 0.00 | 0.00 | 0.00 | 85 | 1012.3 |
| 20260903104455 | 83 | 190 | 4.0 | 6.0 | 0.00 | 0.00 | 0.00 | 84 | 1012.3 |
| 20260903103952 | 84 | 134 | 2.0 | 3.0 | 0.00 | 0.00 | 0.00 | 84 | 1012.1 |
| 20260903103448 | 84 | 171 | 4.0 | 8.0 | 0.00 | 0.00 | 0.00 | 83 | 1012.3 |
| 20260903102943 | 84 | 173 | 4.0 | 6.0 | 0.00 | 0.00 | 0.00 | 82 | 1012.1 |
| 20260903102439 | 84 | 168 | 2.0 | 4.0 | 0.00 | 0.00 | 0.00 | 82 | 1012.1 |
| 20260903101937 | 84 | 159 | 3.0 | 7.0 | 0.00 | 0.00 | 0.00 | 82 | 1012.0 |
| 20260903101432 | 84 | 192 | 4.0 | 6.0 | 0.00 | 0.00 | 0.00 | 82 | 1012.1 |
| 20260903100928 | 84 | 195 | 4.0 | 6.0 | 0.00 | 0.00 | 0.00 | 82 | 1012.1 |
| 20260903100423 | 84 | 183 | 2.0 | 4.0 | 0.00 | 0.00 | 0.00 | 82 | 1012.1 |
| 20260903095920 | 84 | 170 | 3.0 | 4.0 | 0.00 | 0.00 | 0.00 | 82 | 1012.1 |
| 20260903095415 | 84 | 196 | 2.0 | 7.0 | 0.00 | 0.00 | 0.00 | 82 | 1012.1 |
| 20260903094909 | 84 | 201 | 3.0 | 6.0 | 0.00 | 0.00 | 0.00 | 82 | 1012.1 |
| 20260903094403 | 84 | 160 | 3.0 | 8.0 | 0.00 | 0.00 | 0.00 | 82 | 1012.1 |
| 20260903093900 | 84 | 173 | 6.0 | 7.0 | 0.00 | 0.00 | 0.00 | 81 | 1011.9 |
| 20260903093355 | 84 | 196 | 5.0 | 8.0 | 0.00 | 0.00 | 0.00 | 81 | 1012.2 |
| 20260903092850 | 84 | 154 | 3.0 | 6.0 | 0.00 | 0.00 | 0.00 | 81 | 1012.2 |
| 20260903092349 | 84 | 193 | 5.0 | 6.0 | 0.00 | 0.00 | 0.00 | 81 | 1012.1 |
| 20260903091848 | 84 | 187 | 4.0 | 6.0 | 0.00 | 0.00 | 0.00 | 81 | 1012.1 |
| 20260903091348 | 84 | 192 | 5.0 | 7.0 | 0.00 | 0.00 | 0.00 | 81 | 1012.1 |
| 20260903090843 | 84 | 200 | 4.0 | 6.0 | 0.00 | 0.00 | 0.00 | 81 | 1012.1 |
| 20260903090338 | 84 | 184 | 6.0 | 8.0 | 0.00 | 0.00 | 0.00 | 81 | 1012.3 |
| 20260903085836 | 84 | 213 | 2.0 | 6.0 | 0.00 | 0.00 | 0.00 | 81 | 1012.1 |
| 20260903085335 | 84 | 152 | 4.0 | 4.0 | 0.00 | 0.00 | 0.00 | 81 | 1012.1 |
| 20260903084834 | 84 | 124 | 4.0 | 6.0 | 0.00 | 0.00 | 0.00 | 81 | 1012.1 |
| 20260903084334 | 84 | 168 | 1.0 | 4.0 | 0.00 | 0.00 | 0.00 | 81 | 1012.1 |
| 20260903083829 | 84 | 159 | 6.0 | 8.0 | 0.00 | 0.00 | 0.00 | 81 | 1012.0 |
| 20260903083325 | 84 | 180 | 5.0 | 8.0 | 0.00 | 0.00 | 0.00 | 81 | 1012.0 |
| 20260903082824 | 84 | 176 | 5.0 | 7.0 | 0.00 | 0.00 | 0.00 | 81 | 1012.1 |
| 20260903082319 | 84 | 139 | 2.0 | 7.0 | 0.00 | 0.00 | 0.00 | 81 | 1011.9 |
| 20260903081814 | 84 | 204 | 7.0 | 8.0 | 0.00 | 0.00 | 0.00 | 81 | 1012.0 |
| 20260903081310 | 84 | 192 | 5.0 | 8.0 | 0.00 | 0.00 | 0.00 | 81 | 1011.9 |
| 20260903080806 | 84 | 210 | 7.0 | 10.0 | 0.00 | 0.00 | 0.00 | 81 | 1011.9 |
| 20260903080303 | 84 | 189 | 6.0 | 9.0 | 0.00 | 0.00 | 0.00 | 81 | 1012.0 |
| 20260903075802 | 84 | 162 | 2.0 | 4.0 | 0.00 | 0.00 | 0.00 | 81 | 1011.9 |
| 20260903075257 | 84 | 178 | 3.0 | 7.0 | 0.00 | 0.00 | 0.00 | 81 | 1011.9 |
| 20260903074756 | 84 | 142 | 2.0 | 6.0 | 0.00 | 0.00 | 0.00 | 81 | 1011.8 |
| 20260903074252 | 84 | 151 | 4.0 | 8.0 | 0.00 | 0.00 | 0.00 | 81 | 1012.0 |
| 20260903073747 | 84 | 181 | 3.0 | 6.0 | 0.00 | 0.00 | 0.00 | 81 | 1012.0 |
| 20260903073242 | 84 | 177 | 3.0 | 6.0 | 0.00 | 0.00 | 0.00 | 81 | 1012.1 |
| 20260903072739 | 84 | 149 | 3.0 | 8.0 | 0.00 | 0.00 | 0.00 | 81 | 1012.0 |
| 20260903072234 | 84 | 184 | 3.0 | 8.0 | 0.00 | 0.00 | 0.00 | 81 | 1012.1 |
| 20260903071731 | 84 | 186 | 6.0 | 8.0 | 0.00 | 0.00 | 0.00 | 81 | 1012.1 |
| 20260903071226 | 84 | 159 | 3.0 | 6.0 | 0.00 | 0.00 | 0.00 | 81 | 1012.1 |
| 20260903070726 | 84 | 134 | 6.0 | 8.0 | 0.00 | 0.00 | 0.00 | 80 | 1012.2 |
| 20260903070222 | 84 | 196 | 3.0 | 6.0 | 0.00 | 0.00 | 0.00 | 80 | 1012.3 |
| 20260903065717 | 84 | 175 | 4.0 | 8.0 | 0.00 | 0.00 | 0.00 | 80 | 1012.3 |
| 20260903065210 | 84 | 142 | 4.0 | 6.0 | 0.00 | 0.00 | 0.00 | 80 | 1012.5 |
| 20260903064704 | 84 | 146 | 3.0 | 6.0 | 0.00 | 0.00 | 0.00 | 80 | 1012.5 |
| 20260903064200 | 84 | 167 | 4.0 | 6.0 | 0.00 | 0.00 | 0.00 | 80 | 1012.5 |
| 20260903063655 | 84 | 156 | 5.0 | 8.0 | 0.00 | 0.00 | 0.00 | 80 | 1012.5 |
| 20260903063150 | 85 | 184 | 3.0 | 6.0 | 0.00 | 0.00 | 0.00 | 80 | 1012.8 |
| 20260903062646 | 85 | 154 | 5.0 | 6.0 | 0.00 | 0.00 | 0.00 | 80 | 1012.6 |
| 20260903062141 | 85 | 140 | 5.0 | 7.0 | 0.00 | 0.00 | 0.00 | 80 | 1012.7 |
| 20260903061636 | 85 | 164 | 4.0 | 7.0 | 0.00 | 0.00 | 0.00 | 80 | 1012.8 |
| 20260903061135 | 85 | 159 | 5.0 | 7.0 | 0.00 | 0.00 | 0.00 | 80 | 1012.8 |
| 20260903060630 | 85 | 162 | 4.0 | 7.0 | 0.00 | 0.00 | 0.00 | 80 | 1012.9 |
| 20260903060126 | 85 | 156 | 6.0 | 9.0 | 0.00 | 0.00 | 0.00 | 80 | 1012.8 |
| 20260903055623 | 85 | 155 | 4.0 | 4.0 | 0.00 | 0.00 | 0.00 | 80 | 1013.0 |
| 20260903055121 | 85 | 156 | 3.0 | 4.0 | 0.00 | 0.00 | 0.00 | 80 | 1013.1 |
| 20260903054616 | 85 | 172 | 2.0 | 4.0 | 0.00 | 0.00 | 0.00 | 80 | 1013.1 |
| 20260903054113 | 85 | 167 | 0.0 | 3.0 | 0.00 | 0.00 | 0.00 | 80 | 1013.1 |
| 20260903053608 | 85 | 159 | 4.0 | 6.0 | 0.00 | 0.00 | 0.00 | 80 | 1013.3 |
| 20260903053103 | 85 | 184 | 4.0 | 7.0 | 0.00 | 0.00 | 0.00 | 80 | 1013.3 |
| 20260903052559 | 85 | 185 | 3.0 | 6.0 | 0.00 | 0.00 | 0.00 | 80 | 1013.3 |
| 20260903052054 | 85 | 156 | 5.0 | 6.0 | 0.00 | 0.00 | 0.00 | 80 | 1013.2 |
| 20260903051549 | 85 | 206 | 4.0 | 4.0 | 0.00 | 0.00 | 0.00 | 80 | 1013.1 |
| 20260903051045 | 85 | 142 | 4.0 | 6.0 | 0.00 | 0.00 | 0.00 | 80 | 1013.3 |
| 20260903050544 | 85 | 171 | 4.0 | 6.0 | 0.00 | 0.00 | 0.00 | 80 | 1013.2 |
| 20260903050040 | 85 | 153 | 4.0 | 6.0 | 0.00 | 0.00 | 0.00 | 80 | 1013.3 |
| 20260903045538 | 85 | 131 | 2.0 | 4.0 | 0.00 | 0.00 | 0.00 | 80 | 1013.4 |
| 20260903045036 | 85 | 151 | 4.0 | 6.0 | 0.00 | 0.00 | 0.00 | 80 | 1013.2 |
| 20260903044531 | 85 | 145 | 7.0 | 9.0 | 0.00 | 0.00 | 0.00 | 80 | 1013.4 |
| 20260903044027 | 86 | 128 | 4.0 | 9.0 | 0.00 | 0.00 | 0.00 | 80 | 1013.2 |
| 20260903043522 | 86 | 152 | 4.0 | 4.0 | 0.00 | 0.00 | 0.00 | 80 | 1013.2 |
| 20260903043021 | 86 | 179 | 3.0 | 4.0 | 0.00 | 0.00 | 0.00 | 80 | 1013.2 |
| 20260903042516 | 86 | 145 | 2.0 | 9.0 | 0.00 | 0.00 | 0.00 | 80 | 1013.2 |
| 20260903042012 | 86 | 165 | 6.0 | 8.0 | 0.00 | 0.00 | 0.00 | 80 | 1013.0 |
| 20260903041509 | 86 | 141 | 6.0 | 8.0 | 0.00 | 0.00 | 0.00 | 80 | 1013.2 |
| 20260903041009 | 86 | 134 | 4.0 | 7.0 | 0.00 | 0.00 | 0.00 | 80 | 1013.4 |
| 20260903040507 | 86 | 149 | 4.0 | 7.0 | 0.00 | 0.00 | 0.00 | 80 | 1013.4 |
| 20260903040004 | 86 | 134 | 6.0 | 8.0 | 0.00 | 0.00 | 0.00 | 79 | 1013.2 |
| 20260903035459 | 86 | 152 | 2.0 | 4.0 | 0.00 | 0.00 | 0.00 | 79 | 1013.2 |
| 20260903034954 | 86 | 153 | 3.0 | 4.0 | 0.00 | 0.00 | 0.00 | 79 | 1013.2 |
| 20260903034449 | 86 | 130 | 4.0 | 4.0 | 0.00 | 0.00 | 0.00 | 79 | 1013.1 |
| 20260903033944 | 86 | 148 | 1.0 | 7.0 | 0.00 | 0.00 | 0.00 | 79 | 1013.0 |
| 20260903033439 | 86 | 133 | 5.0 | 9.0 | 0.00 | 0.00 | 0.00 | 79 | 1013.0 |
| 20260903032934 | 86 | 129 | 3.0 | 7.0 | 0.00 | 0.00 | 0.00 | 79 | 1012.9 |
| 20260903032430 | 86 | 158 | 4.0 | 13.0 | 0.00 | 0.00 | 0.00 | 79 | 1013.0 |
| 20260903031925 | 86 | 165 | 3.0 | 4.0 | 0.00 | 0.00 | 0.00 | 79 | 1012.7 |
| 20260903031424 | 86 | 170 | 5.0 | 9.0 | 0.00 | 0.00 | 0.00 | 80 | 1012.8 |
| 20260903030920 | 86 | 133 | 5.0 | 11.0 | 0.00 | 0.00 | 0.00 | 79 | 1012.8 |
| 20260903030416 | 86 | 144 | 8.0 | 10.0 | 0.00 | 0.00 | 0.00 | 79 | 1012.7 |
| 20260903025911 | 86 | 132 | 4.0 | 4.0 | 0.00 | 0.00 | 0.00 | 80 | 1012.7 |
| 20260903025407 | 86 | 148 | 7.0 | 8.0 | 0.00 | 0.00 | 0.00 | 79 | 1012.7 |
| 20260903024902 | 86 | 201 | 3.0 | 7.0 | 0.00 | 0.00 | 0.00 | 79 | 1012.5 |
| 20260903024355 | 86 | 158 | 2.0 | 10.0 | 0.00 | 0.00 | 0.00 | 79 | 1012.6 |
| 20260903023850 | 86 | 192 | 6.0 | 9.0 | 0.00 | 0.00 | 0.00 | 79 | 1012.5 |
| 20260903023346 | 86 | 111 | 6.0 | 8.0 | 0.00 | 0.00 | 0.00 | 79 | 1012.4 |
| 20260903022841 | 86 | 138 | 7.0 | 14.0 | 0.00 | 0.00 | 0.00 | 78 | 1012.1 |
| 20260903022340 | 86 | 195 | 9.0 | 14.0 | 0.00 | 0.00 | 0.00 | 78 | 1012.1 |
| 20260903021839 | 86 | 163 | 6.0 | 10.0 | 0.00 | 0.00 | 0.00 | 78 | 1012.0 |
| 20260903021335 | 87 | 161 | 8.0 | 11.0 | 0.00 | 0.00 | 0.00 | 77 | 1011.9 |
| 20260903020836 | 87 | 135 | 5.0 | 8.0 | 0.00 | 0.00 | 0.00 | 77 | 1012.0 |
| 20260903020331 | 87 | 150 | 6.0 | 9.0 | 0.00 | 0.00 | 0.00 | 75 | 1011.6 |
| 20260903015831 | 87 | 142 | 3.0 | 8.0 | 0.00 | 0.00 | 0.00 | 73 | 1011.7 |
| 20260903015326 | 87 | 155 | 11.0 | 14.0 | 0.00 | 0.00 | 0.00 | 72 | 1011.5 |
| 20260903014821 | 87 | 155 | 8.0 | 13.0 | 0.00 | 0.00 | 0.00 | 71 | 1011.5 |
| 20260903014316 | 88 | 123 | 13.0 | 16.0 | 0.00 | 0.00 | 0.00 | 69 | 1011.7 |
| 20260903013811 | 88 | 156 | 7.0 | 14.0 | 0.00 | 0.00 | 0.00 | 68 | 1011.8 |
| 20260903013309 | 88 | 153 | 7.0 | 10.0 | 0.00 | 0.00 | 0.00 | 67 | 1011.9 |
| 20260903012809 | 88 | 163 | 5.0 | 7.0 | 0.00 | 0.00 | 0.00 | 66 | 1011.6 |
| 20260903012306 | 88 | 147 | 8.0 | 13.0 | 0.00 | 0.00 | 0.00 | 66 | 1011.7 |
| 20260903011803 | 88 | 181 | 10.0 | 15.0 | 0.00 | 0.00 | 0.00 | 65 | 1011.5 |
| 20260903011302 | 88 | 156 | 8.0 | 14.0 | 0.00 | 0.00 | 0.00 | 65 | 1011.3 |
| 20260903010757 | 89 | 206 | 13.0 | 17.0 | 0.00 | 0.00 | 0.00 | 64 | 1011.4 |
| 20260903010253 | 89 | 163 | 9.0 | 16.0 | 0.00 | 0.00 | 0.00 | 63 | 1011.2 |
| 20260903005752 | 89 | 99 | 9.0 | 15.0 | 0.00 | 0.00 | 0.00 | 61 | 1011.1 |
| 20260903005246 | 89 | 136 | 4.0 | 11.0 | 0.00 | 0.00 | 0.00 | 57 | 1011.0 |
| 20260903004742 | 90 | 165 | 8.0 | 18.0 | 0.00 | 0.00 | 0.00 | 57 | 1011.1 |
| 20260903004237 | 90 | 173 | 12.0 | 15.0 | 0.00 | 0.00 | 0.00 | 55 | 1011.2 |
| 20260903003733 | 90 | 166 | 13.0 | 16.0 | 0.00 | 0.00 | 0.00 | 54 | 1011.0 |
| 20260903003228 | 90 | 148 | 10.0 | 14.0 | 0.00 | 0.00 | 0.00 | 56 | 1010.9 |
| 20260903002722 | 90 | 159 | 8.0 | 15.0 | 0.00 | 0.00 | 0.00 | 56 | 1010.8 |
| 20260903002217 | 91 | 149 | 9.0 | 14.0 | 0.00 | 0.00 | 0.00 | 56 | 1010.8 |
| 20260903001713 | 91 | 126 | 9.0 | 13.0 | 0.00 | 0.00 | 0.00 | 55 | 1010.8 |
| 20260903001213 | 91 | 160 | 8.0 | 15.0 | 0.00 | 0.00 | 0.00 | 56 | 1010.5 |
| 20260903000708 | 91 | 173 | 6.0 | 14.0 | 0.00 | 0.00 | 0.00 | 56 | 1010.4 |
| 20260903000207 | 92 | 158 | 6.0 | 10.0 | 0.00 | 0.00 | 0.00 | 56 | 1010.6 |
| 20260902235706 | 92 | 139 | 9.0 | 14.0 | 0.00 | 0.00 | 0.00 | 55 | 1010.4 |
| 20260902235201 | 92 | 191 | 12.0 | 16.0 | 0.00 | 0.00 | 0.00 | 54 | 1010.3 |
| 20260902234701 | 93 | 185 | 11.0 | 17.0 | 0.00 | 0.00 | 0.00 | 53 | 1010.2 |
| 20260902234159 | 93 | 158 | 8.0 | 11.0 | 0.00 | 0.00 | 0.00 | 53 | 1010.1 |
| 20260902233654 | 93 | 125 | 4.0 | 10.0 | 0.00 | 0.00 | 0.00 | 54 | 1010.2 |
| 20260902233154 | 93 | 144 | 11.0 | 14.0 | 0.00 | 0.00 | 0.00 | 54 | 1010.2 |
| 20260902232653 | 93 | 154 | 9.0 | 13.0 | 0.00 | 0.00 | 0.00 | 54 | 1010.4 |
| 20260902232152 | 93 | 221 | 14.0 | 18.0 | 0.00 | 0.00 | 0.00 | 55 | 1010.3 |
| 20260902231647 | 94 | 184 | 10.0 | 13.0 | 0.00 | 0.00 | 0.00 | 54 | 1010.3 |